Race Results for
Sea Otter Classic-2009 MOUNTAIN
Monterey, CA
(Event Information)
Cross Country on 04/19/2009

Note: Ranking points are NOT upgrade points. An explanation of ranking points can be found here.


Men - Pro/Cat/1 - Single Speed

 Place Points NameCity, StateTime USAC #BibTeam
1 Conrad Snover   Truckee, CA2:45:16 196378  1853 CYCLEPATHS WILD CHERRIES

Men - Pro/Cat 1 - Single Speed

 Place Points NameCity, StateTime USAC #BibTeam
2 David Yakaitis   Lafayette, CA2:51:43 198575  2154 
3 Geoffrey Huber   Eugene, OR2:51:53 226968  1040 LOST COAST BREWERY
4 DeJay Birtch   Tucson, AZ2:54:32 175788  2399 
5 Toby Biery   Boise, ID2:56:29 275712  2360 
6 Dik Lagerwerff   Boise, ID2:56:38 277052  1180 WILD ROCKIES
7 Todd Stephenson   Aliso Viejo, CA2:57:02 164458  1889 
8 Chris Schulze   Folsom, CA2:57:35 188949  1778 
9 Allan Laframboise   Big Bear Lake, CA2:58:21 259749  83 DONS BIKES
10 John Mylne   San Luis Obispo, CA2:59:44 211655  2443 
11 Richard Blanco   Redwood City, CA3:00:01 127094  437 CYCLEPATHS WILD CHERRIES
12 Matthias Behrends   Mill Valley, CA3:00:15 3185  401 
13 Yuri Hauswald   Petaluma, CA3:02:22 102310  973 MARIN BIKES
14 Jordi Cortes   Santa Cruz, CA3:06:46 41985  621 
15 Anthony Little   Mill Valley, CA3:08:41 218001  1247 SYCIP SCHWALBE
16 Isaias Job   Fremont, CA3:11:48 207885  1085 
17 Jason Winkler   Berkeley, CA3:12:01 272910  2134 
19 TIM CANNARD   3:19:13  527 
20 David Roth   Boulder, CO3:21:14 30683  1721 
21 Harry Precourt   Sudbury, MA3:22:22 202963  1611 INTERNATIONAL BICYCLE TEAM TWIN SIX
22 MATT CHAPELL   3:22:25  561 CYCLEPATHS WILD CHERRIES
23 Craig Sanders   San Jose, CA3:24:15 87331  1748 
24 James Blankenship   Rescue, CA3:28:12 53651  440 
25 Bradley Cole   Cameron Park, CA3:31:16 142505  593 
26 Timothy Jones   Bend, OR3:36:10 83223  1096 WEBCYCLERY.COM
27 Zol Whitman   Placerville, CA3:43:38 106063  2106 REVOLUTIONS
28 Mike Claytor   Fairfax, CA3:54:16 127759  584 
29 Guy Spiher   Winston Salem, NC3:56:35 146941  1871 
30 Nicholas Connolly   Reno, NV4:29:55 194489  607 
DNF SWIG MILLER     2429 NINER
DNF Erik Thunstrom   Boulder Creek, CA 189945  1961 SCCCC
DNF John Merriam   San Luis Obispo, CA 264166  1378 SLIME
DNF Erik Ebberoth   Seaside, CA 220099  2395 
DNF Glenn Rawlinson   Menlo Park, CA 167473  1648 
31341 Courtland Keith   Bakersfield, CA 259003  COURTLAND 1122

Men - Cat 1 - 15-16

 Place Points NameCity, StateTime USAC #BibTeam
1 Chase Dickens   Mount Airy, NC2:52:14 253981  705 
2 Bjorn Fox   Berkeley, CA2:55:25 220350  832 
3 Bryan Duke   Salinas, CA3:01:29 287487  751 
4 Casey Williams   Big Bear City, CA3:17:59 227522  2116 
5 Jeroen Keukenkamp   El Dorado Hills, CA3:20:29 258269  1138 
6 Gene Capinas   North Las Vegas, NV3:44:56 197498  529 

Men - Cat 1 - 17-18

 Place Points NameCity, StateTime USAC #BibTeam
1 ROUKE CROUSER   2:39:55  645 
2 Russell Finsterwald   Colorado Springs, CO2:43:11 228336  808 
3 TYLER ALLISON   2:44:14  323 
4 William Curtis   San Rafael, CA2:45:11 233101  660 
5 JD ST MARTIN   2:49:30  2226 
6 Kevin Fish   Austin, TX2:53:46 189245  810 
7 Cody Kaiser   El Dorado Hills, CA2:55:44 202564  1107 
8 Riley Predum   Fairfax, CA2:58:21 280050  1612 
9 Ben Sukys   Orinda, CA2:59:10 255487  1917 
10 Brady Adams   Boise, ID3:00:05 225393  307 
11 Matt Dion   Pleasanton, CA3:01:30 232729  711 
12 Tylor Giger   Salinas, CA3:01:41 248492  880 
13 Christopher Convis   San Luis Obispo, CA3:04:07 238239  610 
14 Nick Newcomb   Nicasio, CA3:04:41 258299  1475 
15 Will Patterson   Stanford, CA3:06:09 257436  1548 
16 Riley Howard   Petaluma, CA3:07:26 256746  1033 
17 alex schoenfelder   Three Forks, MT3:07:45 279355  1773 
18 Casey Sanchez   Grass Valley, CA3:16:37 238532  1743 
19 Jake Richards   Callaway, MN3:17:08 265418  1673 
20 Ian Breunig   El Cerrito, CA3:17:24 239096  475 
21 Joseph Yoham   San Rafael, CA3:19:55 257687  2162 
22 Colby Pastore   Petaluma, CA3:20:03 256426  1542 
23 NICOLAS AVELLANDEDA   3:34:20  2446 
24 Kody Adams   Hesperia, CA4:03:12 181187  309 
DNF Davis Bentley   Banner Elk, NC 219980  410 
DNF Kyle Kraakevik   Scottsdale, AZ 232125  1165 
DNF JUSTIN AYALA     353 
DNF Devin Masterson   Petaluma, CA 255627  1330 
DNF ADRIAAN LOUW     1273 

Men - Cat 1 - 19-24

 Place Points NameCity, StateTime USAC #BibTeam
1 BRYCE MUNRO   2:40:31  1443 
2 Kyle Hughes   Chico, CA2:56:22 138671  1042 
3 Zachary Keller   Mesa, AZ2:58:53 257387  1125 
4 Yoshio Garcia   Pomona, CA2:59:43 273341  864 
5 Julian Villafane   Ketchum , ID2:59:57 284964  2032 
6 Peter O'Donnell   Boulder, CO3:02:40 246700  1503 
7 Graham Aldredge   Boulder, CO3:04:55 260538  317 
8 Brandon Cross   West Bountiful, UT3:08:33 215775  2439 
9 MATHIAS MARLEY   3:09:45  1314 
10 NICO CERNA   Salinas, CA3:10:40 242278  556 
11 Chris MacKay   Park City, UT3:12:07 228770  1293 
12 William Hedin   Davis, CA3:18:58 179604  980 
13 Vu Le   Temple City, CA3:31:15 234645  1207 
14 Stephane Roch   San Diego, CA3:32:08 199861  1697 
15 Sydney Newsom   Fresno, CA3:38:20 258955  2438 
16 Ryan LaBar   San Juan Capistrano, CA3:43:34 218388  1177 
17 Christian Fernandez   Los Gatos, CA3:46:59 242287  802 
18 PETER MAGY   3:53:26  2330 
DNF Chris Griffo   Torrance, CA 180138  924 
DNF Chris Baddick   Boulder 284559  358 

Men - Cat 1 - 25-29

 Place Points NameCity, StateTime USAC #BibTeam
1 Jonathan Husk   La Jolla, CA2:39:14 116888  2435 
2 Vincent LOMBARDI   Los Angeles, CA2:42:40 292509  1260 
3 Clinton Claassen   El Dorado Hills, CA2:44:36 278360  578 
4 John Parson   Covington, LA2:47:08 236117  1537 
5 EVERETT DUPREE   2:50:25  2440 
6 Ely Woody   Apple Valley, CA2:51:13 99090  2147 
7 ADRIAN SCOTT   2:52:35  1780 
8 Gregory Heinz   Salinas, CA2:57:48 180144  984 
9 Adam Poytress   Goleta, CA2:58:19 260239  1609 
10 BOBBY LANGIN JR   2:59:59  1190 
11 Scott Chapin   Santa Cruz, CA3:01:55 211669  562 
12 Kurt Janssen   Redlands, CA3:02:09 278401  1077 
13 Mark Triebwasser   Lincoln, CA3:02:21 111975  2200 
14 Brian Heifner   Madison, WI3:06:19 176155  982 
15 Chris Thibodeau   Grass Valley, CA3:06:37 241949  1948 SIERRA EXPRESS RACIN
16 Ian Eglitis   Powell Butte, OR3:11:42 140899  771 
17 Lyle Warner   Altadena, CA3:12:44 198500  2061 
18 Andrew Klaiber   Orangevale, CA3:13:11 243382  1151 
19 Todd Stoehr   Lodi, CA3:13:49 165526  1896 
20 Benjamin Ragains   Sparks, NV3:14:05 211382  1631 
21 Ernesto Calderin   San Francisco, CA3:14:05 271646  521 
22 James Sievert   Arcata, CA3:16:54 273040  1821 
23 Ryan MacDonald   Martinez, CA3:18:42 160274  1289 
24 Ryan Hernandez   Walnut, CA3:23:03 275869  1001 
25 Eric Snyder   Visalia, CA3:25:02 284604  2434 
26 Justin Wolff   Santa Cruz, CA3:34:37 221178  2140 
27 Chad MacDonald   Pleasant Hill, CA3:38:54 170454  2428 
28 Stephen Marshall   Big Bear Lake3:45:57 122108  1317 
29 Carson Blume   Redding, CA3:48:08 141869  2436 
30 Luciano Berry   Sunol, CA3:50:11 192658  417 
31 Daimeon Shanks   Boulder, CO3:50:47 126532  1795 
DNF Robert Butner   Union City, CA 166701  515 
DNF John Cordoba   Morgan Hill, CA 225871  617 
DNF Kevin Montgomery   San Francisco, CA 164746  2426 
DNF Justin Lund   Tomahawk, WI 216962  1283 
DNF Jason Scott   Auburn Hills, MI 235664  1783 

Men - Cat 1 - 30-34

 Place Points NameCity, StateTime USAC #BibTeam
1 Gary Douville   Santa Barbara, CA2:40:20 101476  732 
2 Christopher Jones   Bend, OR2:43:16 187300  1092 
3 Wesley Reutimann   Pasadena, CA2:46:13 268144  1669 
4 Kirt Fitzpatrick   San Francisco, CA2:50:34 11765  816 
5 Ethan Black   Chico, CA2:51:31 194968  2445 
6 Trevor Glavin   Encinitas, CA2:51:47 141353  2201 
7 MATTHEW PERRY   2:52:07  1563 
8 SHILOH SOWELL-KANTZ   2:52:40  1862 
9 Krishna Dole   San Mateo, CA2:52:58 277112  718 
10 James Walsh   Encinitas, CA2:54:10 266213  2055 
11 Justin Mann   Lake Elsinore, CA2:58:04 271958  1305 
12 Brian Butler   Salinas, CA2:59:13 250239  514 
13 Marco Arocha   Thousand Oaks, CA2:59:52 287924  345 
14 Griffith Vertican   Santa Ana, CA3:01:16 95837  2025 
15 Humberto Castro   Anaheim, CA3:02:50 245798  550 
16 Brian Edwards   Sunnyvale, CA3:03:25 10496  769 
17 Damian Gonzalez   Stockton, CA3:04:03 178252  894 
18 Daniel Perez   Corona, CA3:05:46 238167  1558 
19 David Belden   Menlo Park, CA3:06:00 117915  403 
20 John Navarro   San Jose, CA3:07:56 204848  1462 
21 Robert Wilcher   Santa Barbara, CA3:11:30 237582  2110 
22 Charles Hamm   Oxnard, CA3:11:57 14837  953 
23 Chase Schoen   Thousand Oaks, CA3:13:37 250408  2351 
24 JON STEWARD   3:13:42  2420 
25 Joel Baty   Truckee, CA3:15:01 175224  383 
26 John Barbachano   Edwards, CA3:17:40 220288  2421 
27 William Kemper   Cody Wy3:18:19 18873  1129 
28 Matthew Severson   La Jolla, CA3:19:01 286262  1792 
29 George Barthel   Sherman Oaks, CA3:19:02 221737  373 
30 Daniel Wells   Hesperia, CA3:25:17 286634  2084 
31 Brent Carkeet   Scotts Valley, CA3:31:00 108762  2257 
32 Michael Hartlaub   Oakland, CA3:34:55 175968  969 
33 Chris Dietrich   Flemington, NJ3:51:28 91682  706 
DNF KEVIN MCCLURE     2430 
DNF John Rosie   Portland, OR 213673  2382 

Men - Cat 1 - 35-39

 Place Points NameCity, StateTime USAC #BibTeam
1 Alex Smith   Berkeley, CA2:44:01 33022  1837 
2 John Pattullo   Salinas, CA2:45:59 27439  2260 
3 Benjamin Capron   San Anselmo, CA2:46:31 6060  530 
4 James Renwick   Santa Monica, CA2:48:43 287635  1666 
5 Ryan Booth   Sausalito, CA2:50:46 4248  458 
6 Timothy Sparks   Moorpark, CA2:51:19 250370  1865 
7 Kevin Koen   Cypress, TX2:54:00 157452  1160 
8 Scott Leland   Reno, NV2:54:51 179817  1228 
9 John Saliamonas   San Gabriel, CA2:54:51 287464  1738 
10 Daniel Stromborg   Los Angeles, CA2:54:57 237464  1906 
11 Tom Torrance   Boulder, CO2:56:41 173912  1978 
12 Alexis Seletzky   Los Angeles, CA2:57:06 194792  1788 
13 Alex Work   Santa Cruz, CA2:57:54 285472  2149 
14 Kyle Ashton   Sebastopol, CA2:58:30 264499  349 
15 Stephen Ray   Fresno, CA2:58:52 29271  2419 
16 Chad Theule   San Luis Obispo, CA2:59:33 128188  1944 
17 Tim Knudsen   Mill Valley, CA3:04:30 755  1157 
18 Brett Lindstrom   Boulder, CO3:05:53 41752  1245 
19 JOSH CHAVVET   3:06:13  2355 
20 Mark Faulkner   Pacific Grove, CA3:06:56 190171  794 
21 Douglas Krumpelman   Hayden, ID3:08:13 81054  1169 
22 Robert Mohan   Menlo Park, CA3:09:20 24700  1403 
23 Aaron VanderWaal   Seattle, WA3:10:08 236444  2016 
24 Andrew Wellman   West Berlin , VT3:10:59 37673  2083 
25 Mike Oceguera   Azusa, CA3:11:12 183840  1501 
26 CHRIS KASEY   3:11:46  1114 
27 Jeff Dotterweich   Santa Monica, CA3:14:43 210418  729 
28 Nathan Wood   Seaside, CA3:15:29 248406  2144 
29 David Pauls   Angwin, CA3:15:50 111588  1550 
30 Todd Branham   Cedar Mountain, NC3:16:33 4640  472 
31 Rene Pulido   Pomona, CA3:17:06 240860  1620 
32 YANNICK OVEN   3:18:16  1524 
33 Philip Hynes   Mill Valley, CA3:20:55 169857  1058 
34 Arn Allemand   Meridian, ID3:21:30 242245  319 
35 ERIC OLSON   3:22:13  2425 
36 John Hurley   Reno, NV3:23:03 228891  1053 
37 GARY SHOCKEY   3:24:58  2258 
38 James Lopez   Pacific Grove, CA3:26:14 21581  1266 
39 WOLFRAM FRANK   3:29:30  2441 
40 Tyson Godfrey   San Francisco, CA3:49:04 196149  890 
41 Marcus Peterlin   San Ramon, CA3:50:05 293059  1571 
DNF Jeff Botelho   Aurora, CO 178010  464 
DNF Brian Sevall   Soledad, CA 201172  2321 
DNF Gary Mandy   Reno, NV 273033  1304 
DNF Chris Messina   Rancho Santa Margarita, CA 239423  1381 
DNF Tony Torrance   Boulder, CO 172298  1979 
DNF Daniel Studley   Bothell, WA 189528  1911 
DNF MATT ORHAN     1335 MONA-VIE

Men - Cat 1 - 40-44

 Place Points NameCity, StateTime USAC #BibTeam
1 Richard Thurman   Chico, CA2:44:34 35561  1962 
2 Dario Fredrick   San Anselmo, CA2:52:08 12329  838 
3 Mike Hileman   Las Vegas, NV2:53:26 162082  1006 
4 Todd Booth   Santa Barbara, CA2:53:57 4249  459 
5 Nathan Lloyd   Los Angeles, CA2:55:50 21397  1254 
6 Tom Rosencrantz   Mill Valley, CA3:01:57 91336  1716 
7 Roger Moore   Santa Barbara, CA3:02:17 24953  1417 
8 Dean Meyer   Covelo, CA3:02:32 24193  1382 
9 Anthony Leal   San Jose, CA3:02:42 20634  2344 
10 Carl Sanders   Lagunitas, CA3:03:39 273771  1747 
11 Travis Sluder   Morgan Hill, CA3:05:19 41990  1835 
12 Krage Olrich   San Rafael, CA3:05:39 26691  1507 
13 Tom Faukner   Dana Point, CA3:10:21 78560  792 
14 Gregory Galuppo   Oakdale, CA3:10:50 75500  858 
15 Doug Urbach   West Lake Village, CA3:13:00 36238  2000 
16 Courtney Grossman   Salinas, CA3:13:10 86795  932 VOS/CYCLES GLADIATOR
17 Paris Loader   Salinas, CA3:13:26 245328  2433 
18 Chris Marsiguerra   Seaside, CA3:14:56 144195  1319 
19 ELMO KASSIN   Laquinta, CA3:16:23 281155  2424 
20 John Shumaker   Prescott, AZ3:17:41 32574  1817 
21 NORMON THIBAULT   3:21:11  1947 
22 Timothy Simanski   Hayward, CA3:24:13 223810  1826 
23 Paul Wojciak   Poughkeepsie, NY3:25:54 230224  2137 
24 Alexander Rouch   Prunedale, CA3:26:26 219680  1722 
25 Ian Allen   Oxnard, CA3:27:00 85242  2343 
26 Scott Zavack   Los Gatos, CA3:37:40 226979  2173 
27 Erik Trogden   Vista, CA3:38:31 229275  2313 
28 stan finney   Brentwood, CA3:38:47 275286  807 
29 Bobby Lincoln   Park City, UT3:40:05 81215  2274 
30 Klaus Fleischmann   San Carlos, CA3:41:12 99897  819 
31 Paul Hubbell   Wrightwood, CA3:41:14 138340  1039 
32 Sean Davidson   Richmond, ME3:47:43 254298  673 
DNF Mike Lingelbach   Santa Cruz, CA 250551  2431 
DNF Tim Thompson   San Jose, CA 35481  1958 
DNF David Reid   Campbell, CA 250549  2432 
DNF Paul Cusick   Temecula, CA 77230  661 
DNF Marc Kase   Cardiff, CA 47976  2388 
DNF R Todd Crisafulli   San Rafael, CA 8150  641 
DNF LANDAUER JEFF     1078 

Men - Cat 1 - 45-49

 Place Points NameCity, StateTime USAC #BibTeam
1 Perry Roper   Richland, WA2:38:23 30531  1710 
2 JOHNNY O'MARA   2:49:10  1511 
3 Bud Donatoni   Newbury Park, CA2:51:38 9780  2304 
4 Brad Stephenson   Aliso Viejo, CA2:53:18 107621  1888 
5 Russell Kappius   Littleton, CO2:55:04 18520  1113 
6 Tim Zandbergen   Aliso Viejo, CA2:57:43 210789  2171 
7 William Sans   San Mateo, CA3:05:46 48284  1750 
8 Ron Collins   Snohomish, WA3:07:18 205671  599 
9 Bob Nisbet   Oakland, CA3:08:00 144337  1488 
10 Peter Tempest   Gallup, NM3:08:27 102793  1938 
11 David Donatoni   Thousand Oaks, CA3:09:18 280074  723 
12 Rick Kalb   Nevada City, CA3:09:45 188952  1109 
13 Cliff Millemann   Davis, CA3:12:54 159606  1389 
14 Paul Page-Hanson   San Francisco, CA3:13:15 257819  1529 
15 Greg Carlton   Walnut, CA3:14:18 176596  536 
16 David Stowell   San Diego, CA3:15:29 170651  1904 
17 Thomas Dunlap   Sonora, CA3:17:56 79184  754 
18 Richard Kim   Anaheim Hills, CA3:18:44 246854  1140 
19 Robert Letson   Broomfield, CO3:21:39 178769  1233 
20 Michael Perry   Scottsdale, AZ3:25:04 27806  1564 
21 Adan Guzman   Lawndale, CA3:26:30 14489  2442 
22 Timothy Locke   Alamo, CA3:29:49 204285  1256 
23 Ron Harris   Valencia, CA3:33:22 183783  967 
24 Jeffrey Leenhouts   Pleasant Hill, CA3:34:09 20758  1219 
25 Jack Powless   Roseville, CA3:34:30 109228  1605 
26 Robert Martinez   Lodi, CA3:46:41 22761  1327 
27 Scott Clark   Carmichael, CA3:49:09 188950  582 
28 Paule Bates   Santa Cruz, CA3:54:46 112364  379 
DNF Tim Sawyer   Santa Cruz, CA 31398  1753 
DNF Kirk Telaneus   Frazier Park, CA 35176  1937 
DNF Marc Kirberg   Corte Madera, CA 250525  1146 
DNF Brian Teed   Prescott, AZ 131041  2365 

Men - Cat 1 - 50-54

 Place Points NameCity, StateTime USAC #BibTeam
1 BOB ALLISON   1:24:03  322 
2 Geoffrey Drake   Aptos, CA1:25:44 9986  733 
3 Steve Silva   Goleta, CA1:29:29 32669  1824 
4 B Thomas Rice   Redwood City, CA1:30:27 260611  1672 
5 Robert Winston   Carlsbad, CA1:30:58 137225  2135 
6 John Bliss   Boulder, CO1:31:18 83145  442 
7 Curt Morlock   Las Vegas, NV1:33:02 218632  1431 
8 Steve Tetrick   Millville, CA1:36:28 253307  2387 
9 JOHN LANGTON   1:39:46  1192 
10 Rex Lierly   Oakland, CA1:42:31 116765  1238 
11 Matt Barr   Clovis, CA1:45:08 82226  370 
12 Charles Patterson   Pittsburgh, PA1:47:37 190871  1545 
DNF George Smith   Menlo Park, CA 168005  1840 
DNF BOBBY LANGIN SR     1191 

Men - Cat 1 - 55-59

 Place Points NameCity, StateTime USAC #BibTeam
1 GARY SAVEY   1:24:57  2412 
2 Jon Miller   Newbury Park, CA1:25:48 167489  1394 
3 Roger Gillespie   Provo, UT1:31:46 13281  882 
4 Paul Zarubin   Truckee, CA1:34:06 196952  2172 
5 Rick Timossi   Folsom, CA1:34:55 248417  1964 
6 A John Royson   Albany, CA1:35:45 30775  1725 
7 Richard Latorraca   Capitola, CA1:36:49 20467  1203 
8 Shawn Grossman   Boise, ID1:37:09 14291  935 
9 Dwight Hibdon   Park City, UT1:40:46 16081  1003 
10 BARRY NEAR   1:44:19  1464 
11 Dennis Lloyd   Sacramento, CA1:50:25 294437  1253 
12 Ben Eisley   Claremont, CA1:54:08 78103  772 
13 Dick Newson   Sandy, UT1:56:57 148768  1480 
14 Jim Pitkin   Murray, UT2:06:54 167839  2384 

Men - Cat 1 - 60-99

 Place Points NameCity, StateTime USAC #BibTeam
1 Ralph Pilley   San Geronimo, CA1:32:44 218147  1587 
2 Stan Ford   Temcula1:34:05 12017  825 
3 Lawrence Broberg   Felton, CA1:37:19 4905  481 
4 David Ortega   San Diego, CA1:51:21 86603  2324 
5 Frederic Schmid   Waco, TX1:53:58 109257  1766 
6 Terry Dahl   Santa Barbara, CA1:55:04 189437  663 
7 Steven Seaweed   Holy City, CA1:55:14 126472  1787 
8 Ronald Riley   Aptos, CA2:02:10 204167  1677 
9 Buz Brockway   Granada Hills, CA2:04:29 86705  486 
10 BRIAN KINDIRY   2:11:07  2237 
11 Robert Hines   Alameda, CA2:27:07 243991  1009 

Men - Pro

 Place Points NameCity, StateTime USAC #BibTeam
1 CHRISTOPH SAUSER   02:02:54  118 
2 SID TABERLAY   02:07:01  
3 MAX PLAXTON   02:07:28  SHOAIR SPECIALIZED
4 Jeremy Horgan-Kobelski   Boulder, CO02:08:02 16737  SUBARU GARY FISHER
5 Sam Schultz   Missoula, MT02:08:30 164788  SUBARU GARY FISHER
6 Todd Wells   Durango, CO02:10:05 83401  
7 Jeremiah Bishop   Harrisonburg, VA02:10:56 3771  MONAVIE-CANNONDALE
8 CONRAD STOLTZ   02:10:56  132 
9 Carl Decker   Bend, OR02:13:56 9007  11 TEAM GIANT
10 KEN ONODERA   02:14:47  101 SUBARU GARY FISHER
11 STEFAN WIDMER   02:15:20  15 ROCKY MOUNTAIN FACTORY
12 Manuel Prado   Lake Forest, CA02:17:03 217924  14 SHO AIR SPECIALIZED
13 Dana Weber   Aliso Viejo, CA02:17:15 126922  141 TREK WORLD BICYCLE RELIEF
14 MATTHEW HADLEY   02:17:18  64 XPREZO
15 DEREK ZANDSTRA   02:18:34  3 ROX RACING
16 Erik Tonkin   Portland, OR02:18:57 35742  136 
17 Aaron Olson   Santa Barbara, CA02:19:38 54612  100 OAKLEY/SIDI
18 DAVE WIENS   02:20:13  143 
19 Chris Sheppard   Bend, OR02:20:13 40297  122 
20 BRANDON STEWART   02:20:40  129 
21 T Burke Swindlehurst   Salt Lake City, UT02:21:06 51227  133 
22 Travis (TJ) Woodruff   Prescott, AZ02:21:24 135975  145 ADVENTURE 212 SPECIALIZED
23 Colin Cares   Boulder, CO02:21:24 216528  20 KENDA TOMAC HAYES
24 MAX KNOX   02:21:49  82 
25 Drew Edsall   Denver, CO02:22:00 225238  50 SCOTT/WTB
26 CRAIG RICHEY   02:22:06  112 BLUE COMPETITION CYCLES
27 Ryan Woodall   Ocala, FL02:22:17 153440  147 TEAM DEDICATED ATHLETE
28 Travis Livermon   Lewisville, NC02:22:21 161583  13 CHAMPION SYSTEM CANNONDALE
29 Sean Babcock   Beaverton, OR02:24:01 261628  23 
30 TAD ELLIOTT   02:24:01  16 US NAT MTB DEVELOPMENT
31 Chris Peariso   Amherst, WI02:24:26 139566  105 ADVENTURE 212 SPECIALIZED
32 Robert Marion   Mount Airy, NC02:24:45 220597  90 KENDA KMC HAYES
33 Thomas Bender   Salt Lake City, UT02:25:01 230273  28 ADVENTURE 212 SPECIALIZED
34 Bryan Alders   Boulder, CO02:25:17 198436  21 MONAVIE CANNONDALE
35 Rob Squire   Sandy, UT02:25:25 267198  17 US NAT MTB DEVELOPMENT
36 Benjamin Thompson   Bend, OR02:25:36 189912  134 CANNONDALE FACTORY RACING
37 Macky Franklin   Taos02:26:32 215111  56 TRANSPARENT RACING
38 DANIEL SESSFORD   02:26:45  120 BLUE COMPETITION CYCLES
39 ERIC BATTY   02:27:01  25 
40 Scott Frederick   Raleigh, NC02:28:22 66359  57 INLAND CONSTRUCTION
41 Charles Jenkins   Ridgecrest, CA02:28:33 17736  74 CYTOMAX KHS
42 Spencer Paxson   Bellingham, WA02:28:33 152029  104 
43 ETHAN GILMORE   02:28:36  61 US NAT MTB DEVELOPMENT
44 Gian Dalle Angelini   Roslyn Wa02:28:36 210989  43 RED LINE
45 BRIAN ASFELL   02:28:54  299 
46 Kalan Beisel   Colorado Springs, CO02:29:00 244363  27 PROCYCLING CTS
47 THOMAS SKINNER   02:29:02  123 SPECIALIZED OAK BAY
48 FLAVIO DE LUNA   02:29:24  46 REGION AGUAAS CALIENTES MEX
49 Sean Donovan   Foothill Ranch, CA02:29:44 186481  48 CYTOMAX KHS
50 Jan Koles   Winter Park, CO02:29:44 222615  150 MAFIA RACING
51 Robert Anderson   Mill Valley, CA02:29:46 1688  22 SPECIALIZED RACING MASTERS
52 KIM TOFAUTE   02:29:46  135 
53 Randall Jacobs   Brighton, MA02:31:47 266868  73 WHEELWORKS
54 Bart Gillespie   Salt Lake City, UT02:31:59 13273  60 MONAVIE-CANNONDALE
55 Braden Kappius   Littleton, CO02:32:13 132490  78 CLIFF BAR
56 Kevin Smallman   San Leandro, CA02:32:21 204144  124 
57 SIMON HAPPY   02:32:58  65 RST VELO SPORT
58 Blake Harlan   Austin, TX02:33:18 175637  66 JAMIS
59 Jason Moeschler   Nevada City, CA02:33:19 90775  297 WTB
60 Michael Mooradian   Saratoga Springs, NY02:33:43 79201  94 SPIN RR DONNELLY
61 Jason Siegle   Solvang, CA02:34:00 193522  146 TEAM BEAR VALLEY BIKES
62 Aaron Elwell   Topeka, KS02:34:18 115327  51 CRRT/T6
63 Yuki Saito   Denver, CO02:34:28 208187  117 TOPEAK-ERGON RACING TEAM
64 James Williams   Bend, OR02:34:28 186063  148 CANNONDALE FACTORY RACING
65 Roger Bartels   Healdsburg, CA02:34:31 2760  24 NORCAL BIKE SPORT
66 Chad Stoehr   San Luis Obispo, CA02:36:11 139643  131 BLUE COMPETITION CYCLES
67 Jason Rahlwes   Watsonville, CA02:36:34 84784  149 FAMILY CYCLING CENTER
68 Ryan Iddings   Seattle, WA02:37:02 146372  72 
69 Ryan Clark   Laguna Hills, CA02:37:27 242802  40 CYNERGY CYCLES
70 Adam Snyder   Westminster, MA02:37:27 122912  19 3D RACING
71 Charles Pendry   Raleigh, NC02:37:46 106096  107 INLAND CONSTRUCTION
72 Alexander Grant   Salt Lake City, UT02:37:57 101189  62 MONAVIE-CANNONDALE
73 Justin Maka   Albuquerque, NM02:39:25 164982  89 SDG/Azonic/Tekbolt
74 Bob Delp   Folsom, CA02:39:59 9138  47 BICYCLES PLUS SIERRA NEVADA
75 Alex Boone   Pasadena, CA02:40:30 224203  31 SUBARU GARY FISHER
76 Matthew Wittler   Ashland, OR02:40:52 211532  144 LOST COAST BREWERY/MARIN BIKES
77 JACOB MCCLELLAND   02:42:16  91 UNAFFILIATED
78 Brent Steinberg   Grand Junction, CO02:43:24 252120  128 
79 Wesley Dickson   Brevard, NC02:44:02 9461  2205 SYCAMORE CYCLES
80 Jim Hewett   Fairfax, CA02:44:39 226388  69 SUMMIT BICYCLES
81 Jason Sager   Ogden, UT02:45:05 31059  116 JAMIS
82 Shannon Boffeli   Salt Lake City, UT02:45:20 43484  30 REVOLUTION MTB RACE NEWS
83 Stephen Larsen   Any Town, OR02:45:51 20413  84 UNAFFILIATED
84 Ron Castia   Livermore, CA02:47:13 144264  38 INFOVISTA
85 CHRISTOPHER EVERIST   02:48:17  53 3 ROX RACING
86 Amon Pease   Point Arena, CA02:48:29 82723  106 LOST COAST BREWERY
87 Kyle Stock   Sonora, CA02:48:50 158304  130 GOLDEN CHAIN CYCLISTS
88 Alex Ryan   Lewisville, NC02:49:42 173542  115 CHAMPION SYSTEM CANNONDALE
89 Timothy Carson   Leechburg, PA02:51:36 248906  36 
90 ANASTASIO FLORES JR   02:52:15  55 ANOTHERBIKESHOP.COM
91 Travis McMaster   Anthem, AZ02:52:29 127936  92 MAFIA RACING
92 Matthew Beaton   Colorado Springs, CO02:53:32 216119  26 TOKYO JOES
93 James (Jay) Richards   Callaway, MN02:55:43 29711  111 
94 MINHYUG JUNG   02:55:51  76 GLOVAL 7TH CROSS
95 Garnet Vertican   Crestline, CA02:56:06 43191  298 GIANT ODI
96 Noah Holcomb   Aliso Viejo, CA02:57:57 128792  71 CANNONDALE FACTORY RACING
97 Lucas Livermon   Carrboro, NC02:59:16 161552  86 INLAND CONSTRUCTION
98 Tom Sharp   San Carlos, CA02:59:31 224912  121 CONTENTWORKS
99 Matthew Connors   Scottsdale, AZ03:02:25 196490  41 FISHER 29ER CREW
100 Kat Statman   Lexington, VA03:05:25 239294  127 TRANSPARENT RACING
101 Andrew Rigel   Seattle, WA03:07:06 77337  113 MAFIA
102 Seamus Powell   Round Top, NY03:08:58 242397  110 DEVO WINDHAM MT OUTFITTERS
103 Zachary Griffin   Bakersfield, CACUT 142398  63 FINISH LINE
104 Bryan VanVleet   Oceanside, CACUT 195988  139 KHS BICYCLES
105 Daniel Kindregan   Englewood, COCUT 19146  81 GT DIRT COALITION
106 MATTHEW ROTROFF   CUT  114 INLAND CONSTRUCTION
107 Carl Hesselein   Arcata, CACUT 236332  68 WHOLE ATHLETE
DNS Edmund (Ned) Overend   Durango, CODNS 26957  102 SPECIALIZED
DNS Eric Nelson   Boulder, CODNS 108410  98 FOX RACING SHOX
DNS Miles Neisser   Laguna Beach, CADNS 207644  97 ARTSCYCLERY
DNS ADAM MORKA   DNS  12 TREK STORE
DNS Brett Luelling   Salem, ORDNS 21785  88 
DNS WIENS DAVE   DNS  44 
DNS Ross Schnell   Grand Jct, CODNS 99965  119 
DNS JEFF KERKOVE   DNS  80 
DNS SEAMUS MCGRATH   DNS  JAMIS
DNS Gregory Carpenter   Durango, CODNS 191158  35 DEVO GIANT
DNS Jason First   Laguna Beach, CADNS 71635  54 
DNS Matt Chaney   Fairfax, CADNS 245028  39 CONTENTWORKS
DNS Daniel McNaughton   Martinez, CADNS 110305  93 CONTENTWORKS
DNF Matt Wiebe   Boulder, CODNF 242922  142 TEAM CO SINGLE TRACK
DNF BENJAMIN SONNTAG   DNF  125 MONAVIE-CANNONDALE
DNF BURRY STANDER   DNF  126 
DNF Corey Ward   Morgan Hill, CADNF 157390  140 
DNF Mitchell Peterson   Salt Lake City, UTDNF 192669  109 MONAVIE/CANNONDALE
DNF Ryan Trebon   Bend, ORDNF 136658  137 
DNF JACQUES VANRENSBERG   DNF  138 
DNF Cody Peterson   Bend, ORDNF 97506  108 DEDICATED ATHLETE
DNF Robert Herber   Murrieta, CADNF 153464  67 DIXON ART
DNF John Nobil   La Jolla, CADNF 26168  99 BEAR VALLEY BIKES
DNF Nitish Nag   Union City, CADNF 216175  96 NRL RACING DEVELOPMENT
DNF Wiley Mosley   Austin, TXDNF 163464  95 SPECIALIZED RIDERS CLUB
DNF Jason Lowetz   Williamsburg, MIDNF 129069  87 BEARCLAW
DNF MARTY LAZARSKI   DNF  85 ROCKY MTN BICYCLES
DNF Josh Kelley   Portland, ORDNF 248579  79 SHOAIR
DNF Sam Jurekovic   Colorado Springs, CODNF 189561  77 SHO AIR SPECIALIZED
DNF Aaron Bradford   Santa Cruz, CADNF 156335  32 ON SITE RACING
DNF Mitchell Hoke   Boulder, CODNF 203760  70 TOKYO JOES
DNF Paul Freiwald   Lake Forest, CADNF 12367  59 PIVOT CYCLES
DNF Matthew Freeman   Redlands, CADNF 172215  58 
DNF Stephen Ettinger   Bozeman, MTDNF 189074  52 ARLBERG/BLACK DIAMOND SPORTS
DNF Trevor Downing   Durango, CODNF 161859  49 FORT LEWIS COLLEGE
DNF Menso de Jong   Cupertino, CADNF 243003  45 SANTA CRUZ BICYCLES
DNF Chris Brown   Sebastopol, CADNF 196943  33 NORCAL SPECIALIZED
DNF David (Tinker) Juarez   Whittier, CADNF 18332  75 MONAVIE-CANNONDALE
DNF Troy Wells   Durango, CODNF 112599  
DNF John Bennett   El Cerrito, CADNF 237917  29 WHOLE ATHLETE
DNF Andy Schultz   Missoula, MTDNF 172534  10 KENDA TOMAC HAYES
DNF Adam Parke   Steamboat Springs, CODNF 213492  103 ORANGE PEEL CYCLERY
DNF PETER GLASSFORD   DNF  18 TREK STORE RACING
DNF Nate Byrom   Penn Valley, CADNF 237491  34 NORTH STAR/WTB
DNF ALFREDO CRUZ   DNF  42 AUTO TECH ENSENADA MEX
DNF Steven Carwile   Owings Mills, MDDNF 149268  37 CAPITAL SUBARU/DAVE'S KILLER

Women - Pro/Cat 1 - Single Speed

 Place Points NameCity, StateTime USAC #BibTeam
1 Louise Kobin   Los Gatos, CA1:34:05 247781  1158 MAGURA
2 Sarah Maile   Sacramento, CA1:36:14 163025  1299 VENTANA
3 REBECCA TOMASZENSKI   1:37:42  2400 
4 CASSANDRA PERKINS   1:45:11  2422 CANNONDALE FACTORY RACING TEAM
5 Natalie Morris   Sacramento, CA1:48:33 204242  1432 
DNF Carrie Edwards   Sausalito, CA 99021  770 SHEILA MOON BIG SWINGIN CYCLES

Women - Cat 1 - 15-18

 Place Points NameCity, StateTime USAC #BibTeam
1 Essence Barton   Thousand Oak, CA1:34:53 179924  375 
2 Shayna Powless   Roseville California1:41:32 230397  1607 
3 CAYLEY BROOKS   1:44:38  489 
4 Christine Weir   Nevada City, CA1:45:03 258083  2078 
5 Deidre York   Boulder, CO1:49:39 178289  2165 
6 Katherine Pollard   Los Angles, CA1:50:29 256535  1596 
7 Kara Uhl   Smithville, TX2:08:13 185730  1994 

Women - Cat 1 - 19-29

 Place Points NameCity, StateTime USAC #BibTeam
1 BIANCA ADOLF   1:31:17  312 
2 Kari Studley   Bothell, WA1:32:53 207049  1912 
3 Katie DeClercq   Soquel, CA1:33:22 264086  2418 WTB
4 Emma Garrard   Park City, UT1:33:57 294479  866 
5 Abby Cooper   Thousand Oaks, CA1:35:43 204975  613 
6 Amber Broch   Reno, NV1:35:56 202496  483 
7 claudia A. espinoza   Chula Vista, CA1:36:28 255348  2401 
8 Linnea Koons   Roxbury, MA1:37:00 224763  1163 
9 Lisa Crowe   Redlands, CA1:39:46 259708  647 
10 amber finch   Truckee, CA1:40:28 277502  805 
11 Kate Scheider   Boulder, CO1:41:59 206491  1761 
12 Kay Sherwood   Colorado Springs, CO1:42:59 258965  1810 
13 KATE HARRIS   1:43:55  966 
14 Brooke Warner   Altadena, CA1:46:14 243697  2059 
15 Carol Boland   Capitola, CA1:46:36 233406  454 
16 Shelli Stevenson   Billings, MT1:46:41 221484  2410 
17 Sage Wilderman   Fraser, CO1:48:43 199903  2113 
18 Amy Shreve   Santa Cruz, CA1:50:12 266964  1815 
19 Vanessa Humic   Long Beach, CA1:52:42 250250  1046 
20 HOLLY WHITEKNIGHT   1:53:01  2100 
DNF Anna Fortner   Carpinteria, CA 280797  826 

Women - Cat 1 - 30-39

 Place Points NameCity, StateTime USAC #BibTeam
1 Michelle Monroe   Salinas, CA1:35:42 203968  1410 
2 ERIN FORD   1:37:43  2341 
3 Rachel Schmidt   Huntington Beach, CA1:42:23 239014  1767 
4 VANESSA DRIGO   1:45:49  2427 
5 Shannon Mathis   Nashville, TN1:49:32 186727  1334 
6 Jessica Conner   San Francisco, CA2:02:59 181072  2437 

Women - Cat 1 - 40-49

 Place Points NameCity, StateTime USAC #BibTeam
1 Julia Violich   San Anselmo, CA1:36:28 156830  2036 
2 Beverly Chaney   Carmel, CA1:38:18 221127  559 
3 Meiling Yee   Sunnyvale, CA1:41:10 250509  2159 
4 Heidi Bowen   Woodland Hills, CA1:44:29 190382  2404 
5 Michele Bliss   Boulder, CO1:46:05 60539  443 
6 Asa Salas   Folsom, CA1:46:26 115370  1734 
7 Debra Zupancic   Redwood City, CA1:49:55 231262  2181 
8 Janet Soule   Davis, CA1:50:58 263079  1860 
9 Christy Murphy   Novato, CA2:00:52 171836  1444 
10 Elizabeth Caraker   Monterey, CA2:16:00 184754  531 
DNF BETTINA KOHLBRENNER     2247 

Women - Cat 1 - 50-59

 Place Points NameCity, StateTime USAC #BibTeam
1 Cheryl Roth   Boulder, CO1:39:45 30681  1720 
2 Julie Bates   Santa Cruz, CA1:48:18 205183  378 
3 Lesley Jensen   Benicia, CA1:49:18 17778  1082 
4 Sue Fish   Monterey Park, CA1:52:53 11692  811 
5 Karen Rehder   San Rafael, CA1:57:51 224245  1656 
6 BEVERLEY ROBINSON   2:05:51  1695 

Women - Pro

 Place Points NameCity, StateTime USAC #BibTeam
1 Georgia Gould   Fort Collins, CO01:22:45 183192  201 LUNA PRO TEAM
2 LENE BYBERG   01:23:52  223 SPECIALIZED FACTORY RACING
3 CATHARINE PENDREL   01:23:59  202 THE LUNA CHIX
4 KELLI EMMETT   01:26:43  207 
5 Willow Koerber   Durango, CO01:26:54 77103  205 SUBARU GARY FISHER
6 Pua Sawicki   Yucaipa, CA01:27:00 208698  251 
7 Katerina Nash   Truckee, CA01:28:07 188603  238 LUNA PRO TEAM
8 Heather Irmiger   Boulder, CO01:29:02 109232  203 SUBARU GARY FISHER
9 Jenna Rinehart   Mankato, MN01:29:47 160568  240 SPECIALIZED
10 LORENZA MORFIN   01:30:22  248 
11 EMILY BATTY   01:30:53  204 TREK STORE
12 AMANDA SIN   01:31:31  206 3 ROX RACING
13 CATHERINE VIPOND   01:31:56  245 NORCO FACTORY
14 Allison Mann   Lake Elsinore, CA01:32:00 268587  208 SHOAIR SPECIALIZED NEMA
15 KATHY SHERWIN   01:33:04  209 KENDA TOMAC HAYES
16 Susan Butler   Portland, OR01:33:07 211472  216 MONAVIE-CANNONDALE
17 Lindsey Bishop   Boulder, CO01:33:26 198013  226 MAFIA RACING
18 Judy Freeman   Littleton Co01:34:22 182719  229 TOUGH GIRL-SCOTT
19 SANDRA WALTER   01:35:26  246 
20 Alice Pennington   Portland, OR01:35:51 150685  224 VELAFORMA/ZYM
21 Natasha Hernday   Bellevue, WA01:36:03 97756  214 AMGEN
22 MELANIE MCQUAID   01:36:03  247 MCQUAID/SHO-AIR
23 Amanda Carey   Victor, ID01:36:08 223212  211 KENDA TOMAC HAYES
24 MICAL DYCK   01:36:32  228 TREKTORONTOSTORE/TENASCAPE
25 ALEKSANDRA ROKITA   01:37:05  213 SPIN RR DONNELLY
26 Erin Huck   Boulder, CO01:37:21 194901  233 TOKYO JOES
27 Rebecca Rusch   Ketchum, ID01:38:01 240196  241 
28 Sarah Kaufmann   Park City, UT01:38:11 204404  250 
29 Krista Park   Madison, SD01:39:14 203842  212 INCYCLE/MAGURA/NOTUBES
30 Maureen Kunz   Oakland, CA01:39:55 206973  218 LOST COAST BREWERY
31 Sonya Looney   Kelowna01:40:04 205174  236 TOPEAK ERGON
32 Heather Holmes   Atlanta, GA01:42:08 222022  232 KENDA TOMAC HAYES
33 JEAN ANN MCKIRDY   01:42:17  237 LOCAL RIDE RACING
34 Athena Kraus   El Cerrito, CA01:42:48 276277  234 ELLSWORTH BICYCLES/STONE RACING
35 Anina Aaron   Oak Ridge, NC01:44:15 244684  215 KENDA KMC HAYES
36 Shannon Holden   Spokane, WA01:47:04 151124  231 
37 Caitlyn Tuel   Golden, CO01:47:52 168652  244 TOUGH GIRL/SCOTT
38 Philicia Marion   Mount Airy, NC01:48:32 220598  221 KENDA KMC HAYES
39 Erika Krumpelman   Hayden, ID01:48:45 179685  235 
40 Emma Worldpeace   Redway, CA01:49:10 206653  225 LOST COAST BREWERY
41 Jamie Stamps   Capitola, CA01:49:26 234451  222 ANOTHER BIKE SHOP
42 Abby Strigel   Madison, WI01:53:35 202434  243 MAFIA RACING
43 Jennifer Hanks   Salt Lake City, UT01:54:17 111202  230 REVOLUTION PEAK FASTENERS
44 Joy Duerksen   Yucaipa, CA02:05:52 218863  219 PASS PHYSICAL THERAPY
45 Danae York   Boulder, CO02:05:59 178290  249 
DNS Heather Ranoa   Murrieta, CADNS 240134  220 
DNS Sara Bresnick-Zocchi   Arlington, MADNS 166426  227 
DNF Zephanie Blasi   Vail, AZDNF 156031  217 KENDA TOMAC HAYES
DNF Chloe Forsman   Tucson, AZDNF 214920  210 LUNA PRO TEAM
DNF Sarah Piccolo   Sebastopol, CADNF 252976  239 NORCAL SPECIALIZED
DNF WENDY SIMMS   DNF  242 KONA

Report missing or incorrect license numbers

Volkswagen
SpyOSMOShimanoCUOREUSACDFBonk BreakerSierra Nevada
UCI USA Cycling is the official governing body for all disciplines of competitive cycling in the United States. The 501c3, membership-based organization aims both to achieve sustained success in international cycling competition and to grow competitive cycling in America while delivering an exceptional customer experience.
View Children's Online Privacy Protection Policy
US Olympic Committee